Temp
86 96 102 102 87 91 82 83 91 87 86 92 92 88 85 88 79 69 96 99 101 99 93 88 80 81 81 80 80 80 80 80 80 80 80 80 80 80 80 80 80 81 81 81 82 82 81 81 81
107 107 105 98 85 78 81 89 85 89 91 92 89 90 87 81 92 91 93 97 101 99 94 92 80 81 81 80 80 80 80 80 80 80 80 80 80 80 80 80 81 81 81 82 82 82 81 81 81
96 108 97 91 87 79 80 88 88 91 94 92 91 94 90 84 92 94 98 100 102 99 99 88 80 80 81 80 80 80 80 80 80 80 80 80 80 80 80 80 81 81 81 82 82 81 81 81 81
106 106 103 86 83 88 87 90 93 92 94 96 93 86 92 97 95 99 100 101 101 102 100 83 80 80 81 81 80 80 80 80 80 80 81 81 81 81 80 80 81 81 81 82 81 81 81 81 81
108 104 90 86 85 89 94 95 96 92 92 93 94 86 87 94 99 98 97 100 100 102 99 92 80 80 81 81 81 81 81 80 80 80 81 81 80 80 81 81 81 81 82 82 82 81 81 80 80
100 104 83 73 85 90 94 97 96 94 95 92 93 90 88 97 97 98 99 99 101 101 99 91 81 80 81 81 81 81 81 81 80 80 80 80 81 80 81 81 81 82 82 81 82 82 81 80 80
97 93 86 84 86 86 92 97 92 94 94 92 97 88 90 96 99 100 101 101 101 102 101 96 93 86 80 81 81 81 81 81 80 80 80 80 81 81 81 81 82 82 82 82 82 82 82 81 80
101 97 86 88 83 85 94 95 97 95 92 99 99 85 87 96 101 102 102 101 101 102 102 100 97 97 93 92 80 81 81 81 81 81 81 81 82 83 82 82 80 80 81 81 81 82 81 81 82
106 90 84 86 78 90 97 90 99 101 97 97 98 98 100 99 101 100 99 99 100 101 101 102 101 101 100 100 89 81 81 81 81 82 82 84 93 94 94 81 80 80 80 80 80 80 80 79 79
97 90 90 97 97 91 97 90 96 92 94 94 95 99 101 99 99 95 94 96 98 98 99 100 100 99 99 100 94 94 94 94 93 95 92 94 93 93 92 87 82 81 80 80 79 79 79 80 90
98 90 96 97 99 100 97 95 99 92 68 95 93 97 98 97 96 97 97 98 99 99 98 97 95 94 95 98 93 94 97 96 95 92 91 92 92 93 93 93 93 91 86 93 90 90 91 91 90
93 97 97 99 99 98 95 99 95 93 75 101 101 102 99 96 96 96 98 99 97 97 95 97 98 93 93 96 87 86 85 91 96 94 90 90 91 90 89 91 90 90 90 88 88 88 87 86 86
94 96 97 99 99 99 99 95 94 92 101 102 103 100 99 97 97 98 97 98 98 96 97 97 95 93 92 90 94 95 95 97 96 94 93 91 89 86 81 86 88 87 88 87 86 85 84 84 85
98 97 97 98 98 98 95 96 96 96 102 100 98 99 99 98 97 97 95 94 93 94 95 96 95 92 93 89 89 91 92 94 93 94 91 88 84 82 85 86 86 86 86 85 84 83 82 82 83
99 92 96 96 96 95 98 90 88 99 101 97 97 97 99 99 98 95 94 94 95 95 93 91 91 92 88 89 89 90 94 94 92 92 85 84 84 83 81 84 84 84 83 82 83 82 82 81 83
94 93 84 93 94 95 94 78 81 98 98 96 97 97 96 97 97 96 94 95 94 95 90 89 95 91 88 89 89 92 93 88 88 85 85 86 86 85 82 83 83 83 80 81 81 80 79 78 78
91 76 84 87 95 93 91 85 93 98 96 95 97 96 95 95 93 94 95 96 94 93 91 88 88 89 88 87 89 89 85 85 85 85 85 87 85 86 81 81 81 79 79 79 79 77 74 73 75
77 82 83 83 91 92 90 89 95 97 95 95 96 95 95 94 92 92 93 95 94 92 90 89 89 87 86 88 86 88 87 87 88 87 87 85 85 84 81 81 79 78 78 77 76 71 74 72 73
88 85 83 87 91 88 88 87 92 94 94 94 92 92 92 93 96 94 92 93 92 90 88 87 86 86 85 87 87 85 80 79 84 87 87 84 83 82 78 79 78 77 75 73 72 72 70 70 71
88 84 81 88 90 87 87 86 90 90 90 91 92 91 92 93 93 92 91 92 90 89 87 87 86 86 85 88 87 86 84 86 87 86 84 82 80 80 78 75 75 74 73 72 71 67 66 64 66
85 82 82 81 87 90 85 83 85 90 92 91 92 93 93 93 93 93 92 91 92 89 87 86 86 85 84 85 87 84 84 84 84 82 83 84 80 79 77 75 74 72 71 72 69 66 64 62 65
79 88 86 84 81 76 85 71 81 85 86 89 90 92 94 94 94 94 93 92 92 92 92 88 86 85 85 84 83 80 79 79 83 83 84 81 80 79 78 76 74 70 70 66 67 68 65 63 60
83 89 85 84 81 79 78 77 75 84 83 85 89 92 93 95 95 94 94 94 95 93 93 90 86 84 83 82 79 81 80 83 83 82 79 76 79 79 79 76 72 68 67 66 65 63 61 62 60
90 87 86 85 83 69 75 75 74 77 82 86 89 91 93 95 95 95 95 95 94 96 95 91 86 83 83 81 81 78 77 76 77 76 75 79 78 78 76 74 71 67 67 63 63 64 60 59 60
88 80 70 66 68 66 79 75 74 83 87 88 89 92 95 96 95 94 94 92 92 93 91 92 87 84 84 82 81 80 77 75 75 75 77 72 75 75 73 70 67 68 63 65 63 59 58 59 58
83 80 70 57 62 69 79 69 74 86 89 90 92 92 94 95 96 95 94 93 94 92 89 88 87 85 85 83 81 80 78 79 78 76 74 73 73 73 71 69 67 65 64 62 60 56 58 59 58
79 66 82 71 74 69 74 78 84 87 88 89 91 92 92 93 92 93 92 92 92 90 87 87 88 86 85 83 80 78 77 75 74 73 72 74 71 72 70 68 65 63 64 60 57 58 58 58 56
84 87 73 75 59 57 68 71 66 78 81 85 86 88 90 92 93 92 93 91 90 90 89 88 88 87 85 83 82 78 72 75 70 73 70 69 69 67 67 65 62 63 59 58 58 57 59 56 56
78 72 77 77 73 62 61 69 83 80 83 83 85 88 89 91 92 91 91 91 90 91 92 90 88 86 86 84 78 68 74 71 68 71 70 69 67 66 65 61 61 56 57 60 58 58 58 58 58
86 80 78 68 65 71 69 66 86 85 85 85 84 88 89 90 91 92 92 91 90 89 89 88 85 85 85 78 74 69 72 73 66 68 69 65 63 63 61 61 56 58 58 60 58 58 59 59 58
MSLP
1009.32 1008.96 1008.02 1005.85 1004.52 1002.69 1003.54 1004.81 1005.54 1005.57 1006.55 1007.74 1008.42 1008.48 1008.69 1008.89 1009.41 1010.86 1011.67 1012.17 1012.36 1013.37 1015.23 1016.41 1017.07 1017.41 1017.69 1017.85 1018.01 1018.09 1018.16 1018.14 1018.11 1018.09 1018.06 1017.99 1017.97 1017.85 1017.81 1017.68 1017.54 1017.38 1017.30 1017.23 1017.13 1017.07 1016.98 1016.88 1016.78
1007.31 1007.04 1006.65 1004.41 1002.41 1002.49 1003.74 1004.79 1005.48 1006.31 1007.39 1008.30 1008.68 1008.20 1008.83 1009.86 1010.40 1011.11 1011.85 1012.71 1012.50 1013.45 1015.18 1015.87 1017.21 1017.53 1017.77 1017.96 1018.13 1018.23 1018.28 1018.19 1018.17 1018.19 1018.13 1018.11 1018.06 1017.98 1017.93 1017.83 1017.71 1017.58 1017.45 1017.29 1017.21 1017.09 1016.97 1016.84 1016.76
1008.48 1006.47 1005.24 1002.87 1002.43 1002.78 1003.99 1005.23 1006.26 1006.85 1007.21 1007.40 1007.71 1008.59 1008.90 1010.29 1010.92 1011.15 1012.29 1012.56 1012.58 1013.52 1014.53 1016.17 1017.26 1017.65 1017.86 1018.04 1018.15 1018.29 1018.24 1018.35 1018.37 1018.37 1018.35 1018.27 1018.16 1018.01 1017.95 1017.89 1017.67 1017.57 1017.45 1017.31 1017.25 1017.19 1016.98 1016.82 1016.68
1006.71 1004.99 1003.85 1002.89 1003.05 1003.65 1004.49 1005.69 1005.98 1006.44 1007.09 1007.62 1007.61 1008.57 1010.19 1010.54 1010.70 1011.59 1012.54 1012.62 1013.01 1013.11 1014.15 1016.72 1017.25 1017.62 1017.87 1018.07 1018.20 1018.29 1018.40 1018.40 1018.42 1018.39 1018.33 1018.31 1018.15 1018.01 1018.01 1017.82 1017.69 1017.48 1017.42 1017.27 1017.15 1017.15 1017.08 1016.92 1016.66
1005.96 1003.70 1002.45 1002.69 1003.42 1004.24 1004.55 1005.45 1005.52 1006.06 1006.77 1007.43 1007.67 1008.57 1010.09 1011.18 1011.51 1012.36 1012.87 1012.84 1012.77 1012.99 1014.25 1016.33 1017.31 1017.70 1017.98 1018.15 1018.29 1018.37 1018.50 1018.50 1018.51 1018.42 1018.32 1018.29 1018.16 1017.99 1017.89 1017.84 1017.75 1017.54 1017.34 1017.12 1017.13 1017.06 1017.00 1016.93 1016.65
1003.79 1003.02 1003.49 1004.83 1003.54 1004.27 1004.75 1005.19 1005.39 1005.97 1006.65 1007.62 1007.63 1008.69 1010.28 1011.42 1011.82 1012.51 1013.03 1013.03 1013.11 1013.25 1014.12 1016.27 1017.43 1017.71 1017.92 1018.09 1018.23 1018.38 1018.47 1018.47 1018.46 1018.39 1018.29 1018.22 1018.10 1018.02 1017.83 1017.75 1017.76 1017.60 1017.40 1017.12 1017.07 1016.93 1016.91 1016.78 1016.67
1003.58 1003.27 1002.62 1003.55 1003.51 1004.26 1004.71 1005.40 1005.61 1005.97 1006.40 1007.44 1007.38 1008.09 1010.24 1010.65 1011.63 1012.35 1012.72 1013.14 1013.33 1013.55 1013.89 1015.53 1016.45 1017.34 1017.92 1018.03 1018.21 1018.29 1018.37 1018.30 1018.31 1018.22 1018.19 1018.15 1018.04 1017.89 1017.76 1017.74 1017.72 1017.63 1017.44 1017.17 1017.06 1017.01 1016.79 1016.60 1016.55
1004.50 1003.10 1002.89 1003.22 1003.79 1004.03 1004.89 1005.40 1005.85 1006.02 1007.10 1008.04 1007.93 1007.78 1009.31 1010.49 1011.40 1012.07 1012.42 1012.92 1013.03 1013.42 1013.61 1014.41 1015.25 1016.01 1016.62 1017.02 1017.87 1018.10 1018.18 1018.19 1018.11 1018.07 1018.08 1017.92 1017.75 1017.43 1017.31 1017.37 1017.73 1017.67 1017.53 1017.29 1017.20 1017.01 1016.95 1016.81 1016.40
1004.61 1003.50 1002.87 1002.93 1005.20 1003.86 1004.62 1005.63 1005.51 1006.63 1006.88 1007.50 1008.08 1008.24 1009.11 1010.75 1011.25 1011.64 1012.16 1012.62 1012.87 1013.27 1013.57 1013.79 1014.17 1014.39 1014.83 1014.91 1016.93 1017.73 1017.91 1017.89 1017.82 1017.73 1017.66 1017.46 1016.70 1016.45 1016.36 1017.09 1017.17 1017.19 1017.17 1017.05 1016.81 1016.80 1016.59 1016.37 1015.90
1004.12 1002.99 1002.48 1003.03 1003.38 1004.37 1004.10 1006.33 1005.55 1006.39 1006.38 1007.15 1007.98 1008.92 1009.49 1010.68 1011.08 1011.64 1012.05 1012.10 1012.33 1012.99 1013.59 1014.01 1014.24 1014.62 1014.91 1015.31 1016.02 1016.35 1016.21 1016.40 1016.36 1016.29 1016.78 1016.60 1016.39 1016.60 1016.72 1016.45 1016.48 1016.73 1016.61 1016.31 1016.11 1016.27 1016.23 1016.00 1014.64
1003.63 1003.09 1003.35 1003.80 1004.15 1003.74 1004.00 1004.53 1005.00 1005.74 1008.05 1006.36 1007.00 1008.09 1009.47 1010.52 1010.99 1011.33 1011.65 1011.80 1011.86 1012.68 1013.57 1014.43 1015.17 1015.47 1015.34 1014.99 1015.31 1014.95 1014.55 1014.67 1015.31 1016.14 1016.92 1016.73 1016.71 1016.29 1016.23 1016.08 1015.82 1016.05 1015.98 1015.41 1015.56 1015.34 1015.01 1014.62 1014.57
1003.88 1003.87 1003.97 1003.95 1004.51 1004.30 1004.10 1004.44 1004.89 1005.70 1008.00 1006.33 1006.67 1007.58 1009.12 1010.14 1010.75 1011.08 1011.07 1011.64 1012.36 1013.07 1013.98 1014.34 1014.53 1015.50 1015.54 1015.23 1015.42 1014.98 1014.93 1014.36 1014.46 1015.12 1016.75 1016.74 1016.53 1016.35 1016.55 1016.32 1016.59 1016.20 1016.07 1015.97 1015.70 1015.41 1015.13 1015.07 1014.73
1004.06 1003.95 1004.34 1004.44 1004.54 1004.32 1004.35 1004.52 1004.71 1006.21 1005.49 1006.67 1006.75 1007.89 1008.58 1009.72 1010.49 1011.07 1011.63 1011.81 1012.46 1013.09 1013.26 1013.87 1014.63 1015.30 1015.56 1015.84 1015.33 1014.82 1014.79 1014.61 1014.79 1015.87 1016.27 1016.89 1016.89 1016.99 1017.41 1017.01 1016.87 1016.81 1016.44 1016.14 1016.00 1015.75 1015.42 1015.15 1014.66
1004.04 1004.16 1004.08 1004.42 1004.17 1004.65 1004.59 1004.36 1004.89 1005.33 1005.33 1006.07 1007.18 1007.34 1008.35 1009.02 1010.25 1010.90 1011.77 1012.37 1013.05 1013.38 1013.50 1013.98 1014.37 1015.12 1015.43 1016.00 1015.99 1015.72 1015.69 1015.42 1015.86 1015.91 1016.54 1017.21 1017.70 1017.59 1017.13 1017.04 1016.89 1016.68 1016.47 1016.51 1016.25 1015.79 1015.68 1015.23 1014.70
1004.14 1004.21 1004.12 1004.27 1004.48 1004.41 1004.95 1004.26 1005.47 1005.03 1005.30 1005.64 1006.57 1007.55 1007.92 1008.87 1010.12 1011.07 1011.87 1012.33 1012.91 1013.40 1014.01 1014.44 1014.94 1015.09 1015.82 1015.89 1016.13 1015.95 1015.67 1015.55 1015.85 1016.12 1017.37 1017.65 1017.48 1017.45 1017.55 1017.06 1016.84 1016.59 1016.79 1016.69 1016.09 1015.73 1015.45 1015.03 1014.54
1003.72 1003.57 1003.40 1004.33 1004.64 1004.75 1005.33 1005.35 1007.61 1005.38 1004.89 1005.50 1006.13 1007.03 1008.23 1008.92 1009.95 1011.22 1012.17 1012.49 1013.03 1013.29 1014.35 1014.92 1014.80 1015.36 1015.98 1015.98 1016.11 1015.79 1015.67 1016.39 1016.49 1017.04 1017.22 1017.24 1017.17 1017.21 1017.44 1017.11 1016.75 1016.69 1017.05 1016.55 1016.12 1015.92 1015.58 1015.35 1014.92
1003.20 1003.88 1003.13 1004.00 1004.72 1004.76 1005.05 1004.65 1005.25 1005.22 1005.34 1005.70 1006.01 1006.47 1008.13 1009.10 1010.51 1011.40 1012.09 1012.40 1013.06 1013.63 1014.36 1015.12 1015.34 1015.52 1015.85 1016.12 1015.98 1016.07 1016.63 1016.76 1016.98 1017.08 1016.98 1016.57 1017.18 1017.07 1017.40 1017.26 1016.95 1017.04 1016.95 1016.44 1016.19 1016.06 1016.31 1015.78 1015.14
1004.15 1003.42 1004.15 1003.95 1004.67 1004.82 1004.30 1004.11 1004.11 1004.75 1005.73 1005.79 1005.94 1006.58 1007.78 1008.93 1010.45 1011.67 1012.14 1012.38 1013.08 1013.73 1014.52 1014.96 1015.31 1015.67 1016.03 1015.98 1016.33 1016.12 1016.31 1016.21 1016.36 1016.51 1016.43 1016.74 1017.03 1017.17 1017.37 1017.19 1017.03 1017.00 1016.69 1016.41 1016.40 1016.78 1016.33 1016.09 1015.23
1004.47 1004.19 1004.11 1004.33 1005.14 1005.50 1004.67 1004.88 1004.73 1005.27 1006.05 1005.80 1006.73 1007.33 1008.09 1008.77 1009.73 1011.33 1012.30 1012.62 1013.29 1013.91 1014.53 1014.94 1015.23 1015.62 1016.05 1015.74 1015.53 1015.21 1015.07 1015.86 1015.70 1015.58 1016.11 1016.89 1017.07 1017.25 1017.48 1017.10 1016.88 1016.93 1016.69 1016.71 1016.73 1016.41 1016.09 1016.17 1015.89
1004.83 1004.49 1005.17 1004.91 1005.35 1005.82 1004.88 1004.61 1004.70 1005.92 1006.39 1006.81 1006.91 1007.37 1008.08 1008.89 1009.76 1011.17 1011.97 1012.47 1013.13 1013.63 1014.28 1014.77 1015.15 1015.47 1015.85 1015.53 1015.54 1015.77 1016.08 1015.92 1015.75 1015.93 1016.41 1016.74 1017.05 1017.15 1017.09 1017.16 1017.14 1016.99 1016.97 1016.66 1016.47 1016.49 1016.42 1016.55 1016.29
1005.10 1005.38 1005.70 1005.77 1005.52 1004.97 1005.25 1004.45 1005.01 1005.90 1006.47 1007.27 1007.56 1007.66 1008.13 1008.49 1009.05 1010.07 1011.03 1011.93 1012.57 1013.29 1014.01 1014.59 1015.05 1015.33 1015.69 1015.80 1015.67 1015.88 1015.97 1015.68 1015.56 1015.61 1015.87 1015.89 1016.63 1016.74 1016.93 1017.10 1017.03 1017.16 1017.27 1016.64 1016.64 1016.80 1016.81 1016.48 1016.35
1005.33 1006.33 1006.24 1005.99 1005.70 1004.56 1005.38 1004.36 1005.05 1005.92 1006.33 1006.88 1007.57 1007.77 1007.95 1008.55 1009.31 1009.86 1010.79 1011.30 1011.85 1012.57 1013.10 1014.19 1014.78 1015.28 1015.53 1015.79 1015.77 1015.98 1016.13 1015.73 1015.55 1015.67 1015.59 1016.14 1016.26 1016.20 1016.44 1016.44 1016.82 1017.18 1017.13 1017.35 1017.02 1016.76 1016.78 1016.48 1016.09
1006.26 1006.83 1006.54 1006.20 1005.68 1005.38 1005.54 1004.83 1006.05 1006.15 1005.84 1006.69 1007.13 1007.61 1007.97 1008.28 1008.46 1009.09 1010.09 1011.03 1011.57 1012.32 1012.75 1013.73 1014.61 1015.11 1015.52 1015.90 1016.26 1016.05 1015.73 1015.49 1015.64 1015.64 1015.87 1016.09 1015.51 1015.60 1015.80 1016.15 1016.75 1017.05 1017.29 1017.07 1016.83 1016.73 1016.64 1016.46 1016.13
1006.87 1006.28 1005.80 1006.02 1005.11 1004.99 1006.04 1006.09 1006.09 1006.52 1006.58 1006.62 1007.03 1007.43 1007.63 1007.84 1008.39 1008.92 1009.73 1010.87 1011.24 1011.85 1012.51 1013.29 1014.43 1014.98 1015.41 1015.80 1015.88 1016.14 1016.12 1016.07 1015.94 1015.99 1016.05 1015.43 1015.68 1015.55 1015.65 1016.12 1016.54 1016.96 1016.92 1016.96 1016.73 1016.34 1016.45 1016.35 1016.06
1006.65 1006.48 1005.14 1005.83 1005.29 1005.17 1006.07 1006.07 1006.58 1007.09 1007.27 1007.49 1007.47 1007.32 1007.26 1007.35 1008.10 1008.61 1008.73 1010.16 1011.13 1011.64 1012.50 1013.08 1014.00 1014.49 1014.95 1015.29 1015.48 1015.67 1016.09 1016.32 1016.07 1015.91 1015.67 1016.13 1015.69 1015.67 1015.79 1016.24 1016.67 1016.49 1016.83 1016.47 1016.45 1016.48 1016.28 1016.04 1015.91
1007.07 1007.32 1007.33 1007.11 1006.33 1006.12 1006.17 1006.14 1006.65 1007.42 1007.73 1007.91 1007.96 1007.93 1007.87 1007.71 1007.91 1008.54 1009.25 1010.22 1010.90 1011.63 1012.63 1013.29 1013.55 1014.04 1014.38 1014.85 1015.15 1015.68 1015.89 1015.80 1015.77 1015.87 1016.46 1016.27 1015.97 1015.92 1016.03 1016.10 1016.21 1016.45 1016.43 1016.42 1016.40 1016.32 1016.01 1015.75 1015.65
1007.90 1009.16 1008.67 1008.49 1007.64 1006.99 1006.60 1006.23 1006.25 1007.44 1007.10 1007.35 1007.45 1007.37 1007.38 1007.47 1008.21 1008.90 1009.70 1010.58 1011.46 1012.06 1012.75 1013.33 1013.36 1013.71 1014.10 1014.63 1015.33 1015.74 1016.09 1016.41 1016.40 1016.39 1016.43 1016.06 1016.27 1016.04 1015.98 1016.02 1016.20 1016.39 1016.10 1016.35 1016.28 1015.88 1015.67 1015.48 1015.42
1008.53 1008.79 1008.42 1008.63 1008.17 1008.09 1007.29 1006.75 1008.68 1007.81 1007.98 1008.23 1008.26 1008.00 1007.91 1008.23 1008.48 1008.91 1009.72 1010.44 1011.82 1012.33 1012.65 1013.10 1013.47 1013.50 1013.84 1014.48 1014.84 1015.30 1015.94 1015.83 1016.45 1016.48 1016.24 1016.26 1016.15 1016.33 1016.14 1016.15 1016.25 1016.17 1016.28 1016.18 1015.89 1015.64 1015.38 1015.23 1014.99
1008.84 1009.86 1009.22 1009.33 1009.46 1009.14 1008.05 1007.47 1007.92 1008.46 1008.59 1008.81 1009.09 1008.90 1008.74 1008.54 1008.90 1009.47 1010.25 1011.01 1012.01 1012.39 1012.40 1012.85 1013.19 1013.51 1013.65 1014.13 1015.13 1016.36 1016.23 1016.29 1016.57 1016.40 1016.28 1016.17 1016.35 1016.30 1016.20 1016.36 1016.27 1016.37 1016.12 1015.67 1015.53 1015.18 1014.94 1014.69 1014.38
1008.75 1008.89 1009.57 1010.00 1010.10 1009.93 1009.37 1008.71 1008.97 1009.21 1009.31 1009.53 1009.87 1009.44 1009.92 1010.27 1010.26 1010.31 1010.66 1011.29 1011.86 1012.21 1012.51 1012.93 1013.63 1013.79 1013.99 1015.05 1015.86 1016.40 1016.54 1016.28 1016.48 1016.47 1016.39 1016.63 1016.70 1016.53 1016.50 1016.34 1016.52 1016.11 1015.70 1015.35 1015.18 1014.82 1014.59 1014.15 1013.89
Wind_Speed
12 11 11 10 9 9 15 19 12 9 16 11 10 13 9 17 14 5 14 9 12 19 17 16 13 11 10 9 7 6 6 5 5 4 3 3 4 5 4 4 5 5 5 6 7 7 8 9 9
12 10 9 10 2 13 14 15 17 15 14 10 6 4 11 16 15 15 12 10 11 18 15 15 13 11 10 8 7 6 5 4 4 2 2 2 2 2 4 5 6 6 6 6 6 7 7 8 10
18 14 12 9 9 15 14 17 14 12 8 5 13 12 13 11 9 8 14 14 13 14 15 17 13 11 9 8 7 5 4 3 2 1 2 3 3 4 4 4 4 5 6 7 8 8 9 9 9
9 11 9 5 14 14 18 11 11 14 11 12 5 11 13 12 5 15 13 12 13 14 17 16 13 11 9 8 7 5 3 2 1 1 2 3 4 4 5 5 5 5 5 6 6 7 9 10 10
12 11 5 6 18 8 16 11 10 13 7 15 10 16 13 9 11 13 11 9 10 12 19 15 12 10 8 7 6 5 3 1 1 2 3 4 4 4 4 4 4 4 5 5 5 6 6 7 7
12 4 3 8 16 9 12 9 9 14 13 5 14 15 14 12 11 11 11 8 7 9 15 15 11 9 9 8 7 5 3 2 1 1 2 3 4 3 2 2 3 4 5 3 4 3 4 5 5
14 2 6 15 7 11 14 4 11 11 13 13 1 17 11 11 13 12 11 10 9 9 10 13 13 10 9 8 7 6 5 5 4 1 1 1 1 2 2 2 3 5 7 7 6 6 6 5 5
10 12 6 7 18 12 14 8 10 8 17 9 5 14 12 14 13 11 11 10 9 9 10 11 12 14 12 13 11 8 6 6 4 3 3 5 8 9 7 8 4 8 9 9 9 9 9 11 12
12 13 5 1 23 11 10 12 8 6 14 5 6 13 17 15 12 12 10 10 9 8 7 8 10 12 9 14 13 11 9 9 9 9 9 9 9 3 5 8 2 5 5 6 9 10 11 11 16
12 8 8 10 7 7 9 19 11 5 12 13 11 11 16 14 12 10 8 9 10 10 8 5 2 1 3 3 10 8 12 10 9 2 1 8 6 6 6 7 10 8 11 12 13 13 13 15 13
6 6 9 6 10 9 10 4 9 7 32 14 13 16 15 13 11 12 9 8 7 11 6 6 5 1 5 3 2 5 6 7 7 5 4 7 6 6 7 7 6 9 3 10 9 10 9 14 13
11 4 3 10 4 5 2 4 5 14 25 7 9 14 15 13 11 10 9 10 4 8 3 8 7 6 5 5 4 4 7 2 6 6 1 5 5 6 7 6 9 9 9 11 10 9 11 13 13
9 5 2 3 4 7 2 5 3 3 9 5 9 6 15 12 11 8 4 3 6 6 10 7 3 5 5 5 7 6 9 6 3 0 1 4 6 6 7 7 8 9 10 10 11 11 10 13 15
4 3 1 3 2 4 12 8 5 5 10 11 3 11 9 14 10 9 6 5 3 1 3 4 3 5 7 5 6 7 3 2 3 2 6 6 3 3 6 8 8 8 8 10 10 11 10 11 13
9 11 10 8 5 5 9 15 10 4 8 4 10 5 9 11 13 9 7 4 4 5 3 2 4 0 3 3 4 3 2 4 4 2 4 4 4 4 6 8 8 8 9 13 11 11 11 11 12
15 10 7 6 5 6 11 5 17 18 4 7 9 7 6 10 10 11 7 5 4 2 5 3 3 5 4 2 2 4 3 4 2 1 3 5 5 4 6 8 9 9 9 11 10 11 11 12 13
6 12 6 11 3 5 7 6 11 3 4 8 7 11 9 9 7 7 9 7 5 4 5 5 3 4 4 4 5 3 4 2 3 2 6 4 6 7 6 9 10 9 9 10 10 9 12 12 12
2 9 3 3 9 7 14 9 10 9 6 9 7 4 9 10 11 10 8 4 5 4 4 4 4 4 3 4 3 4 4 6 5 5 7 4 6 9 8 9 10 9 10 11 10 12 11 11 13
10 8 8 6 6 10 17 8 14 8 8 4 4 5 7 7 12 11 8 7 5 4 4 4 5 4 5 5 6 5 3 3 2 6 2 5 7 9 9 9 9 10 11 11 11 12 11 11 11
9 11 12 11 4 9 16 9 5 3 4 5 2 6 9 9 8 10 10 7 5 4 4 4 5 5 6 6 5 4 6 7 7 5 3 6 5 8 10 10 10 10 11 11 11 5 9 8 7
7 9 11 14 14 15 9 19 8 10 8 5 2 3 4 7 9 11 11 7 7 6 5 4 4 5 5 5 4 5 6 8 7 1 6 5 8 10 9 10 10 10 10 11 11 9 11 10 10
5 9 10 12 13 9 3 8 11 4 9 7 7 10 11 8 5 4 1 3 6 4 6 4 4 4 6 3 4 3 6 7 6 7 6 6 10 9 9 9 10 10 8 10 9 8 8 8 8
11 11 9 11 13 9 2 10 5 4 7 8 4 2 0 1 4 3 8 6 1 4 5 6 5 4 3 3 4 5 6 6 7 7 8 9 9 8 11 9 10 8 7 8 10 10 8 8 8
8 15 13 10 12 6 6 7 7 7 13 4 3 4 4 6 4 5 7 2 5 3 2 6 6 5 4 5 5 5 5 5 6 7 8 8 9 9 10 10 8 8 9 10 10 11 9 9 9
10 12 6 6 3 3 7 7 14 8 7 6 10 10 8 8 2 3 6 6 4 1 1 1 4 5 4 5 5 5 4 6 8 8 8 11 9 9 8 9 9 9 7 12 11 10 9 10 8
10 9 8 10 9 11 9 3 8 5 3 4 7 8 8 13 6 2 4 5 6 6 1 3 4 4 4 6 4 2 3 5 6 8 8 9 9 10 10 10 9 10 11 10 9 7 8 9 7
7 3 6 9 11 10 4 3 7 4 2 1 9 8 10 9 3 5 1 3 6 4 1 5 5 5 5 5 3 4 5 8 9 8 8 9 11 9 12 11 11 10 10 10 9 8 9 7 7
16 8 2 6 6 12 14 7 2 9 14 16 15 15 13 10 9 2 3 5 4 5 3 4 6 8 6 5 5 3 3 5 5 9 10 11 11 9 12 11 10 10 9 11 9 9 8 7 6
10 5 6 5 2 9 10 12 13 10 12 12 14 14 13 7 8 5 4 5 2 7 8 9 7 8 9 6 5 3 5 5 5 10 11 11 10 11 11 9 9 8 11 10 9 9 8 8 8
7 8 6 6 13 10 11 3 13 12 12 10 11 9 12 10 8 8 7 6 6 6 9 12 11 9 10 10 5 3 7 9 6 11 12 10 10 12 10 9 9 11 10 9 8 8 8 9 10
Wind_Direction
225 219 239 263 234 84 82 75 83 78 75 62 67 10 30 19 26 115 134 107 132 124 129 156 155 152 148 145 145 138 128 116 105 95 78 58 35 25 17 15 16 16 12 4 358 353 347 342 336
264 245 242 273 354 84 71 76 61 67 82 100 123 222 44 64 71 108 126 143 158 124 143 144 154 154 148 149 143 135 131 118 111 101 78 44 16 5 354 351 354 354 355 354 346 341 337 331 326
267 264 270 249 76 73 78 84 82 91 86 81 107 51 47 93 105 90 112 150 143 141 156 121 151 151 150 147 146 150 135 119 99 48 7 352 347 352 347 341 345 342 340 341 339 335 331 326 319
277 234 256 99 73 61 101 86 101 105 108 68 322 88 84 66 120 114 140 148 143 149 127 134 146 154 156 159 157 150 150 133 69 10 5 341 343 343 329 338 342 348 340 341 342 338 333 325 319
242 268 273 117 100 97 87 79 98 99 61 69 46 86 95 89 93 123 136 156 171 143 114 142 149 155 160 162 164 156 167 118 8 359 358 341 334 327 321 317 317 337 343 345 340 344 351 350 342
284 270 93 174 108 118 86 92 79 84 81 131 82 78 76 116 127 128 151 155 132 133 130 129 145 160 167 174 171 165 178 158 205 279 354 354 1 356 352 335 323 334 335 332 322 319 331 341 338
295 330 7 108 125 104 90 77 69 89 78 68 176 91 112 154 120 136 156 148 165 143 147 149 165 167 182 184 181 180 192 188 199 206 326 323 168 127 119 96 16 355 342 327 302 290 295 288 280
290 282 170 69 125 118 109 102 97 77 75 100 288 110 117 107 139 140 144 156 169 156 158 159 172 173 187 172 181 188 204 213 200 205 223 232 220 199 210 164 71 1 339 322 307 300 301 296 279
265 275 251 109 58 115 132 112 102 74 124 110 73 59 114 131 147 146 147 150 174 155 155 181 186 161 217 146 156 181 204 216 218 209 211 232 239 305 355 91 160 253 280 286 274 277 275 276 271
271 277 50 29 99 73 124 108 134 201 146 141 137 105 118 144 153 145 162 165 163 153 165 162 198 50 222 219 151 202 178 212 205 233 223 271 18 295 300 270 217 224 240 240 239 246 255 257 263
246 358 61 109 18 339 110 95 123 123 343 145 154 142 143 155 162 157 187 150 189 129 144 153 157 182 291 245 247 237 199 198 191 177 291 324 331 313 314 333 356 336 226 327 333 306 282 321 320
253 38 358 71 116 257 282 99 130 134 202 48 104 135 149 167 172 160 212 150 128 122 156 161 171 183 222 260 237 290 307 288 210 97 30 261 272 353 352 335 338 336 333 331 330 319 325 307 301
249 114 220 138 224 268 3 237 260 6 109 118 96 133 159 173 162 169 185 92 154 185 170 205 173 198 220 227 288 296 306 300 13 21 125 336 325 19 338 347 321 332 330 331 326 318 315 309 302
101 270 240 219 179 191 275 232 181 338 137 149 156 173 188 160 163 152 161 172 177 250 293 277 205 188 224 262 297 288 280 326 273 322 42 28 345 4 323 322 340 316 325 333 311 313 309 300 298
224 241 189 201 180 257 272 273 340 237 159 185 153 235 177 171 153 162 168 155 178 162 262 194 253 206 235 218 235 241 258 317 347 1 72 299 291 351 335 324 310 323 346 311 310 312 305 300 300
228 267 190 74 194 149 263 184 205 263 223 178 236 143 187 168 166 169 151 189 126 207 158 203 268 139 177 163 223 291 27 333 22 21 288 252 280 306 308 320 321 344 314 311 320 315 316 319 309
260 178 174 129 65 348 241 322 195 45 329 281 259 165 169 169 165 146 191 180 157 183 166 185 190 211 170 157 263 257 56 261 229 277 265 252 310 307 312 307 324 332 309 311 315 323 325 304 302
240 34 174 8 51 290 275 247 301 72 328 287 244 136 163 190 175 177 211 172 146 149 159 184 195 195 216 267 230 270 232 233 231 278 287 333 303 310 320 317 313 317 310 313 331 315 302 310 303
331 312 302 90 101 284 301 300 283 30 299 264 246 210 184 192 145 151 193 176 161 143 162 201 190 193 231 230 244 240 246 291 240 274 307 296 308 322 318 302 322 313 310 330 301 300 316 300 314
279 296 30 304 91 296 288 295 67 37 15 342 302 166 177 164 155 162 183 187 182 173 180 198 234 215 217 240 231 339 334 318 311 309 302 266 287 294 298 328 314 315 311 304 296 320 312 300 291
274 351 352 323 318 264 278 270 138 130 115 111 177 80 135 176 172 169 176 191 194 186 194 210 231 232 221 277 270 219 235 230 243 345 279 5 328 307 313 304 307 324 318 305 336 337 314 307 303
14 7 322 311 305 321 320 278 119 100 112 117 158 177 162 147 168 137 326 184 193 240 155 194 206 203 207 214 266 274 302 285 348 279 330 324 288 305 280 303 329 321 330 319 303 285 292 287 298
6 327 301 292 272 296 105 306 86 222 142 118 131 126 183 199 134 97 158 151 185 111 187 155 164 178 144 196 272 277 261 328 326 332 331 305 272 328 312 329 330 342 305 311 302 303 302 294 297
288 265 264 260 246 186 5 330 78 45 11 36 151 227 235 263 136 133 125 142 186 128 45 138 161 171 189 224 226 239 279 300 321 328 308 313 334 317 335 339 340 311 308 322 303 297 300 288 284
325 335 325 261 245 29 61 276 73 50 30 341 339 328 296 251 251 54 175 154 97 101 117 106 149 202 197 225 226 242 283 310 288 321 326 336 318 323 327 341 318 302 316 313 309 314 296 287 295
24 312 24 318 343 321 51 7 115 85 40 322 313 306 293 290 318 36 53 67 339 50 81 212 212 265 205 241 255 301 304 309 308 353 332 314 313 328 335 319 305 315 322 309 314 295 280 289 299
228 26 360 300 266 283 149 42 80 201 11 350 322 286 288 294 357 311 33 104 342 16 216 281 299 299 268 277 284 286 355 335 322 328 317 318 320 331 322 318 323 306 319 314 298 286 302 304 288
312 13 305 322 319 332 342 350 4 13 11 351 332 329 342 8 301 17 353 91 355 308 292 235 310 301 311 293 270 338 18 347 334 321 324 323 311 326 301 325 320 332 318 296 292 291 296 294 278
215 149 271 307 347 319 316 328 45 6 352 351 339 339 325 352 15 43 48 47 25 321 326 335 311 307 275 262 46 59 319 335 321 323 330 315 332 304 322 326 333 317 295 297 296 300 298 288 281
300 342 342 342 345 320 279 342 28 10 10 24 343 17 33 0 1 341 2 15 322 338 342 347 347 302 308 55 11 328 311 325 348 333 319 354 332 322 329 333 327 305 302 309 307 303 299 300 301